This is the latest recevied weather packets stored in our database for station/object K5MGY. If no packets are shown the sender has not sent any weather packets the latest 10 day(s).
| Time | Temp. | Humidity | Pressure | Rain* | Wind** | Luminosity | Snow |
|---|---|---|---|---|---|---|---|
| 1778007727 | 31.67° C | 56% | 1029 hPa | 0 mm | - | 323 W/m² | - |
| 1778007425 | 31.11° C | 57% | 1029 hPa | 0 mm | - | 619 W/m² | - |
| 1778007121 | 31.11° C | 60% | 1029.2 hPa | 0 mm | - | 456 W/m² | - |
| 1778006817 | 30.56° C | 59% | 1029.1 hPa | 0 mm | - | 513 W/m² | - |
| 1778006515 | 30.56° C | 61% | 1029.2 hPa | 0 mm | - | 682 W/m² | - |
| 1778006211 | 30.56° C | 61% | 1029.2 hPa | 0 mm | - | 573 W/m² | - |
| 1778005909 | 30.56° C | 62% | 1029.2 hPa | 0 mm | - | 357 W/m² | - |
| 1778005605 | 30.56° C | 60% | 1029.3 hPa | 0 mm | - | 585 W/m² | - |
| 1778005302 | 30° C | 61% | 1029.3 hPa | 0 mm | - | 483 W/m² | - |
| 1778004998 | 30° C | 60% | 1029.2 hPa | 0 mm | - | 479 W/m² | - |
| 1778004696 | 30° C | 63% | 1029.5 hPa | 0 mm | - | 616 W/m² | - |
| 1778004392 | 30° C | 62% | 1029.4 hPa | 0 mm | - | 535 W/m² | - |
| 1778004090 | 30° C | 63% | 1029.4 hPa | 0 mm | - | 407 W/m² | - |
| 1778003785 | 29.44° C | 63% | 1029.4 hPa | 0 mm | - | 486 W/m² | - |
| 1778003482 | 29.44° C | 63% | 1029.4 hPa | 0 mm | - | 508 W/m² | - |
| 1778003178 | 29.44° C | 63% | 1029.2 hPa | 0 mm | - | 471 W/m² | - |
| 1778002874 | 28.89° C | 64% | 1029.4 hPa | 0 mm | - | 632 W/m² | - |
| 1778002571 | 28.89° C | 64% | 1029.4 hPa | 0 mm | - | 270 W/m² | - |
| 1778002268 | 28.89° C | 63% | 1029.5 hPa | 0 mm | - | 374 W/m² | - |
| 1778001966 | 28.89° C | 64% | 1029.5 hPa | 0 mm | - | 361 W/m² | - |
| 1778001662 | 28.89° C | 64% | 1029.6 hPa | 0 mm | - | 257 W/m² | - |
| 1778001357 | 28.33° C | 65% | 1029.3 hPa | 0 mm | - | 248 W/m² | - |
| 1778001054 | 28.33° C | 65% | 1029.5 hPa | 0 mm | - | 308 W/m² | - |
| 1778000751 | 28.89° C | 64% | 1029.7 hPa | 0 mm | - | 270 W/m² | - |
| 1778000448 | 28.89° C | 65% | 1029.6 hPa | 0 mm | - | 312 W/m² | - |
* Rain latest hour (hover to see other rain measurements)
** Current wind speed in m/s (hover to see current wind gust speed)